EWG48K EDDH-LFMN

Flight info

Callsign EWG48K
Flight time N/A
Altitude 35000
Route IDEKO8C IDEKO N850 XAROL/N0443F360 DCT BOMBI DCT GIGET DCT ABUKA DCT KRH DCT NATOR/N0445F370 DCT TRA DCT RIPUS DCT GERSA DCT SOSON DCT ODINA DCT ENOBA Z185 BORDI
Aircraft A320/M-SDE3FGHIRWY/LB1

Departure

Time 2026-05-08 06:46
Airport Hamburg Helmut Schmidt Airport (EDDH)

Arrival

Time N/A
Airport Nice-Côte d'Azur Airport (LFMN)
Time Latitude Longitude Altitude Speed Heading
2026-05-08 06:10 53.63331 10.00354 49 ft 0 kts 86°
2026-05-08 06:38 53.63330 10.00321 48 ft 4 kts 86°
2026-05-08 06:38 53.63328 10.00277 45 ft 4 kts 97°
2026-05-08 06:38 53.63337 10.00240 45 ft 4 kts 147°
2026-05-08 06:39 53.63352 10.00230 47 ft 0 kts 176°
2026-05-08 06:41 53.63326 10.00234 46 ft 10 kts 175°
2026-05-08 06:42 53.63255 10.00218 48 ft 10 kts 207°
2026-05-08 06:42 53.63196 10.00218 48 ft 8 kts 176°
2026-05-08 06:42 53.63146 10.00223 48 ft 7 kts 176°
2026-05-08 06:42 53.63073 10.00225 48 ft 14 kts 193°
2026-05-08 06:43 53.62995 10.00142 48 ft 13 kts 213°
2026-05-08 06:43 53.62928 10.00070 48 ft 10 kts 212°
2026-05-08 06:43 53.62868 10.00034 47 ft 7 kts 201°
2026-05-08 06:43 53.62848 9.99973 48 ft 6 kts 251°
2026-05-08 06:44 53.62839 9.99940 47 ft 0 kts 243°
2026-05-08 06:44 53.62835 9.99929 44 ft 5 kts 243°
2026-05-08 06:44 53.62808 9.99833 45 ft 12 kts 253°
2026-05-08 06:45 53.62867 9.99745 45 ft 15 kts 334°
2026-05-08 06:45 53.63115 9.99530 46 ft 75 kts 332°
2026-05-08 06:45 53.63779 9.98956 47 ft 136 kts 333°
2026-05-08 06:45 53.64772 9.98119 85 ft 180 kts 334°
2026-05-08 06:46 53.65869 9.97111 756 ft 176 kts 332°
2026-05-08 06:46 53.66939 9.96106 1519 ft 176 kts 334°
2026-05-08 06:46 53.67994 9.95078 2234 ft 175 kts 334°
2026-05-08 06:46 53.69041 9.94045 2944 ft 174 kts 335°
2026-05-08 06:47 53.70080 9.92989 3538 ft 177 kts 335°
2026-05-08 06:47 53.71064 9.91608 4034 ft 193 kts 309°
2026-05-08 06:47 53.71591 9.89473 4557 ft 206 kts 278°
2026-05-08 06:47 53.71491 9.87012 5047 ft 217 kts 253°
2026-05-08 06:48 53.70943 9.84555 5461 ft 233 kts 245°
2026-05-08 06:48 53.70286 9.81938 5940 ft 248 kts 246°
2026-05-08 06:48 53.69635 9.79221 6681 ft 252 kts 248°
2026-05-08 06:48 53.68980 9.76449 7424 ft 255 kts 248°
2026-05-08 06:49 53.68139 9.73723 7867 ft 273 kts 226°
2026-05-08 06:49 53.66528 9.71989 8397 ft 281 kts 194°
2026-05-08 06:49 53.64599 9.71330 9167 ft 284 kts 189°
2026-05-08 06:49 53.62646 9.70709 9996 ft 287 kts 189°
2026-05-08 06:50 53.60661 9.70050 10591 ft 298 kts 190°
2026-05-08 06:50 53.58544 9.69335 10805 ft 322 kts 191°
2026-05-08 06:50 53.56302 9.68569 11237 ft 334 kts 191°
2026-05-08 06:50 53.54006 9.67777 11900 ft 339 kts 191°
2026-05-08 06:51 53.51681 9.66970 12604 ft 343 kts 192°
2026-05-08 06:51 53.49333 9.66156 13305 ft 346 kts 192°
2026-05-08 06:51 53.46962 9.65340 13998 ft 349 kts 192°
2026-05-08 06:51 53.44568 9.64523 14613 ft 352 kts 192°
2026-05-08 06:52 53.42154 9.63706 15210 ft 355 kts 192°
2026-05-08 06:52 53.39720 9.62886 15819 ft 359 kts 192°
2026-05-08 06:52 53.37264 9.62056 16423 ft 362 kts 192°
2026-05-08 06:52 53.34785 9.61220 17028 ft 365 kts 192°
2026-05-08 06:53 53.32288 9.60380 17621 ft 368 kts 192°
2026-05-08 06:53 53.29771 9.59532 18224 ft 370 kts 193°
2026-05-08 06:53 53.27233 9.58673 18754 ft 374 kts 193°
2026-05-08 06:53 53.24675 9.57810 19255 ft 377 kts 192°
2026-05-08 06:54 53.22097 9.56939 19765 ft 379 kts 193°
2026-05-08 06:54 53.19507 9.56068 20276 ft 381 kts 193°
2026-05-08 06:54 53.16900 9.55194 20790 ft 383 kts 193°
2026-05-08 06:54 53.14313 9.54329 21260 ft 386 kts 193°
2026-05-08 06:55 53.11674 9.53450 21741 ft 388 kts 193°
2026-05-08 06:55 53.09015 9.52565 22213 ft 391 kts 193°
2026-05-08 06:55 53.06341 9.51673 22681 ft 393 kts 193°
2026-05-08 06:55 53.03652 9.50777 23139 ft 396 kts 193°
2026-05-08 06:56 53.00943 9.49875 23592 ft 398 kts 193°
2026-05-08 06:56 52.98216 9.48969 23994 ft 401 kts 193°
2026-05-08 06:56 52.95478 9.48060 24368 ft 403 kts 193°
2026-05-08 06:56 52.92725 9.47146 24744 ft 405 kts 193°
2026-05-08 06:57 52.89958 9.46226 25124 ft 406 kts 193°
2026-05-08 06:57 52.87180 9.45302 25467 ft 408 kts 193°
2026-05-08 06:57 52.84384 9.44377 25830 ft 410 kts 193°
2026-05-08 06:57 52.81578 9.43451 26182 ft 412 kts 193°
2026-05-08 06:58 52.78757 9.42520 26531 ft 414 kts 193°
2026-05-08 06:58 52.75922 9.41588 26872 ft 416 kts 193°
2026-05-08 06:58 52.73071 9.40653 27204 ft 418 kts 193°
2026-05-08 06:58 52.70210 9.39712 27536 ft 420 kts 193°
2026-05-08 06:59 52.67333 9.38765 27863 ft 423 kts 193°
2026-05-08 06:59 52.64480 9.37830 28187 ft 425 kts 193°
2026-05-08 06:59 52.61537 9.36878 28507 ft 427 kts 193°
2026-05-08 06:59 52.58602 9.36027 28806 ft 430 kts 192°
2026-05-08 07:00 52.55680 9.35262 29110 ft 432 kts 191°
2026-05-08 07:00 52.52703 9.34523 29412 ft 434 kts 191°
2026-05-08 07:00 52.49708 9.33790 29703 ft 436 kts 191°
2026-05-08 07:00 52.46704 9.33045 29980 ft 438 kts 191°
2026-05-08 07:01 52.43686 9.32280 30262 ft 440 kts 191°
2026-05-08 07:01 52.40662 9.31498 30478 ft 441 kts 192°
2026-05-08 07:01 52.37623 9.30703 30684 ft 443 kts 192°
2026-05-08 07:01 52.34567 9.29898 30894 ft 445 kts 192°
2026-05-08 07:02 52.31503 9.29090 31131 ft 447 kts 192°
2026-05-08 07:02 52.28436 9.28287 31449 ft 446 kts 192°
2026-05-08 07:02 52.25377 9.27493 31761 ft 445 kts 192°
2026-05-08 07:02 52.22314 9.26716 32077 ft 445 kts 191°
2026-05-08 07:03 52.19243 9.26051 32399 ft 445 kts 189°
2026-05-08 07:03 52.16171 9.25485 32716 ft 445 kts 189°
2026-05-08 07:03 52.13093 9.24975 33014 ft 444 kts 188°
2026-05-08 07:03 52.10016 9.24478 33323 ft 444 kts 188°
2026-05-08 07:04 52.06947 9.23974 33638 ft 443 kts 189°
2026-05-08 07:04 52.03887 9.23428 33953 ft 442 kts 190°
2026-05-08 07:04 52.00847 9.22738 34245 ft 441 kts 192°
2026-05-08 07:04 51.97825 9.21931 34502 ft 440 kts 193°
2026-05-08 07:05 51.94814 9.21067 34753 ft 439 kts 193°
2026-05-08 07:05 51.91801 9.20198 34984 ft 439 kts 193°
2026-05-08 07:05 51.88793 9.19357 35232 ft 439 kts 192°
2026-05-08 07:05 51.85782 9.18585 35470 ft 439 kts 191°
2026-05-08 07:06 51.82759 9.17900 35695 ft 438 kts 190°
2026-05-08 07:06 51.79733 9.17272 35914 ft 438 kts 189°
2026-05-08 07:06 51.76709 9.16666 36120 ft 438 kts 189°
2026-05-08 07:06 51.73683 9.16056 36333 ft 438 kts 189°
2026-05-08 07:07 51.70663 9.15431 36531 ft 437 kts 190°
2026-05-08 07:07 51.67644 9.14788 36710 ft 437 kts 190°
2026-05-08 07:07 51.64630 9.14132 36896 ft 437 kts 190°
2026-05-08 07:07 51.61618 9.13473 37083 ft 437 kts 190°
2026-05-08 07:08 51.55591 9.12168 37148 ft 437 kts 190°
2026-05-08 07:08 51.49572 9.10843 37150 ft 436 kts 191°
2026-05-08 07:09 51.43628 9.08980 37143 ft 435 kts 195°
2026-05-08 07:09 51.37775 9.06814 37147 ft 435 kts 195°
2026-05-08 07:10 51.31871 9.04701 37142 ft 435 kts 194°
2026-05-08 07:10 51.25882 9.03155 37142 ft 437 kts 189°
2026-05-08 07:11 51.19835 9.02116 37136 ft 437 kts 188°
2026-05-08 07:11 51.13788 9.01069 37144 ft 437 kts 189°
2026-05-08 07:12 51.08737 9.00096 37146 ft 437 kts 189°
2026-05-08 07:12 51.02707 8.98887 37146 ft 437 kts 189°
2026-05-08 07:13 50.96682 8.97664 37138 ft 436 kts 189°
2026-05-08 07:13 50.90654 8.96469 37142 ft 436 kts 189°
2026-05-08 07:14 50.84629 8.95289 37152 ft 436 kts 189°
2026-05-08 07:14 50.78608 8.94115 37153 ft 436 kts 189°
2026-05-08 07:15 50.72588 8.92934 37150 ft 436 kts 189°
2026-05-08 07:15 50.66563 8.91752 37156 ft 436 kts 189°
2026-05-08 07:16 50.60585 8.90588 37153 ft 436 kts 189°
2026-05-08 07:16 50.54563 8.89416 37153 ft 436 kts 189°
2026-05-08 07:17 50.48542 8.88249 37146 ft 436 kts 189°
2026-05-08 07:17 50.42524 8.87098 37153 ft 435 kts 189°
2026-05-08 07:18 50.36516 8.85938 37155 ft 435 kts 189°
2026-05-08 07:18 50.30504 8.84766 37144 ft 435 kts 189°
2026-05-08 07:19 50.24495 8.83614 37146 ft 435 kts 189°
2026-05-08 07:19 50.18491 8.82468 37150 ft 435 kts 189°
2026-05-08 07:20 50.12488 8.81324 37152 ft 434 kts 189°
2026-05-08 07:20 50.06527 8.80198 37140 ft 434 kts 189°
2026-05-08 07:21 50.00535 8.79013 37147 ft 434 kts 190°
2026-05-08 07:21 49.94561 8.77747 37148 ft 433 kts 191°
2026-05-08 07:22 49.88584 8.76481 37139 ft 433 kts 190°
2026-05-08 07:22 49.82614 8.75242 37136 ft 433 kts 190°
2026-05-08 07:23 49.76638 8.74009 37139 ft 433 kts 190°
2026-05-08 07:23 49.70674 8.72784 37138 ft 432 kts 190°
2026-05-08 07:24 49.64710 8.71572 37144 ft 432 kts 190°
2026-05-08 07:24 49.58749 8.70375 37145 ft 432 kts 190°
2026-05-08 07:25 49.52801 8.69176 37149 ft 431 kts 190°
2026-05-08 07:26 49.43878 8.67381 37152 ft 431 kts 190°
2026-05-08 07:26 49.37940 8.66186 37143 ft 430 kts 190°
2026-05-08 07:27 49.32049 8.64991 37141 ft 430 kts 190°
2026-05-08 07:27 49.26117 8.63794 37133 ft 430 kts 190°
2026-05-08 07:28 49.20191 8.62604 37092 ft 429 kts 190°
2026-05-08 07:28 49.14272 8.61417 37103 ft 429 kts 190°
2026-05-08 07:29 49.08358 8.60231 37105 ft 429 kts 190°
2026-05-08 07:29 49.02444 8.59056 37101 ft 428 kts 190°
2026-05-08 07:30 48.96551 8.57737 37097 ft 427 kts 193°
2026-05-08 07:30 48.90751 8.55842 37097 ft 426 kts 195°
2026-05-08 07:31 48.84975 8.53802 37095 ft 426 kts 195°
2026-05-08 07:31 48.79223 8.51887 37095 ft 426 kts 194°
2026-05-08 07:32 48.73420 8.50039 37080 ft 426 kts 194°
2026-05-08 07:32 48.67614 8.48197 37082 ft 426 kts 194°
2026-05-08 07:33 48.61809 8.46340 37085 ft 426 kts 194°
2026-05-08 07:33 48.56002 8.44480 37086 ft 427 kts 194°
2026-05-08 07:34 48.50194 8.42623 37084 ft 427 kts 194°
2026-05-08 07:34 48.44378 8.40774 37086 ft 427 kts 194°
2026-05-08 07:35 48.38572 8.38935 37091 ft 427 kts 194°
2026-05-08 07:35 48.32758 8.37097 37094 ft 427 kts 194°
2026-05-08 07:36 48.26944 8.35258 37084 ft 427 kts 194°
2026-05-08 07:36 48.21131 8.33428 37080 ft 427 kts 194°
2026-05-08 07:37 48.15204 8.32635 37094 ft 432 kts 178°
2026-05-08 07:37 48.09248 8.34016 37072 ft 434 kts 173°
2026-05-08 07:38 48.03280 8.35464 37071 ft 434 kts 174°
2026-05-08 07:38 47.97350 8.36875 37071 ft 435 kts 174°
2026-05-08 07:39 47.91380 8.38320 37074 ft 435 kts 173°
2026-05-08 07:39 47.85404 8.39765 37067 ft 435 kts 174°
2026-05-08 07:40 47.79423 8.41191 37073 ft 435 kts 174°
2026-05-08 07:40 47.73437 8.42615 37081 ft 435 kts 174°
2026-05-08 07:41 47.67455 8.44010 37070 ft 435 kts 175°
2026-05-08 07:41 47.61447 8.44989 37078 ft 434 kts 178°
2026-05-08 07:42 47.55477 8.45739 37100 ft 433 kts 178°
2026-05-08 07:42 47.49473 8.46546 37091 ft 434 kts 178°
2026-05-08 07:43 47.43466 8.47431 37092 ft 434 kts 178°
2026-05-08 07:43 47.37461 8.48329 37096 ft 433 kts 178°
2026-05-08 07:44 47.31463 8.49209 37095 ft 433 kts 178°
2026-05-08 07:44 47.25464 8.50084 37088 ft 433 kts 178°
2026-05-08 07:45 47.19473 8.50960 37088 ft 433 kts 178°
2026-05-08 07:45 47.13478 8.51832 37088 ft 433 kts 178°
2026-05-08 07:46 47.07524 8.52689 37088 ft 433 kts 178°
2026-05-08 07:46 47.01531 8.53558 37073 ft 432 kts 178°
2026-05-08 07:47 46.95540 8.54419 37080 ft 432 kts 178°
2026-05-08 07:47 46.89555 8.55270 37087 ft 433 kts 178°
2026-05-08 07:48 46.83569 8.56136 37068 ft 431 kts 178°
2026-05-08 07:48 46.77587 8.57003 37076 ft 433 kts 178°
2026-05-08 07:49 46.71591 8.57864 37107 ft 433 kts 178°
2026-05-08 07:49 46.65609 8.58711 37111 ft 431 kts 178°
2026-05-08 07:50 46.59643 8.59554 37114 ft 431 kts 178°
2026-05-08 07:50 46.53674 8.60406 37114 ft 431 kts 178°
2026-05-08 07:51 46.47714 8.61259 37110 ft 430 kts 178°
2026-05-08 07:51 46.41802 8.62086 37110 ft 430 kts 178°
2026-05-08 07:52 46.35803 8.62931 37103 ft 429 kts 178°
2026-05-08 07:52 46.29891 8.63760 37105 ft 430 kts 178°
2026-05-08 07:53 46.23932 8.64605 37093 ft 430 kts 178°
2026-05-08 07:53 46.17984 8.65449 37101 ft 429 kts 178°
2026-05-08 07:54 46.12039 8.66264 37100 ft 428 kts 180°
2026-05-08 07:54 46.06169 8.65636 37101 ft 422 kts 192°
2026-05-08 07:55 46.00368 8.64431 37093 ft 421 kts 191°
2026-05-08 07:55 45.94576 8.63242 37099 ft 421 kts 191°
2026-05-08 07:56 45.88776 8.62067 37100 ft 421 kts 191°
2026-05-08 07:56 45.82981 8.60891 37094 ft 420 kts 191°
2026-05-08 07:57 45.77190 8.59716 37102 ft 420 kts 191°
2026-05-08 07:57 45.71405 8.58547 37103 ft 420 kts 191°
2026-05-08 07:58 45.65617 8.57378 37097 ft 420 kts 191°
2026-05-08 07:58 45.59836 8.56212 37089 ft 419 kts 191°
2026-05-08 07:59 45.54093 8.55056 37094 ft 419 kts 191°
2026-05-08 07:59 45.48319 8.53898 37097 ft 419 kts 191°
2026-05-08 08:00 45.42544 8.52741 37063 ft 419 kts 191°
2026-05-08 08:00 45.36773 8.51585 37067 ft 419 kts 191°
2026-05-08 08:01 45.31002 8.50436 37074 ft 419 kts 191°
2026-05-08 08:01 45.25235 8.49283 37064 ft 419 kts 191°
2026-05-08 08:02 45.19471 8.48128 37073 ft 418 kts 191°
2026-05-08 08:02 45.13704 8.46979 37080 ft 418 kts 191°
2026-05-08 08:03 45.07939 8.45845 37064 ft 418 kts 191°
2026-05-08 08:03 45.02173 8.44713 37070 ft 418 kts 191°
2026-05-08 08:04 44.96409 8.43575 37076 ft 418 kts 191°
2026-05-08 08:04 44.90644 8.42433 37080 ft 418 kts 191°
2026-05-08 08:05 44.84920 8.41304 37064 ft 419 kts 191°
2026-05-08 08:05 44.79144 8.40170 37066 ft 419 kts 191°
2026-05-08 08:06 44.73367 8.39045 37065 ft 419 kts 191°
2026-05-08 08:06 44.67583 8.37923 37054 ft 420 kts 191°
2026-05-08 08:07 44.61797 8.36797 37065 ft 420 kts 191°
2026-05-08 08:07 44.56007 8.35670 37070 ft 420 kts 191°
2026-05-08 08:08 44.50218 8.34553 37066 ft 420 kts 191°
2026-05-08 08:08 44.45366 8.33612 37074 ft 420 kts 191°
2026-05-08 08:09 44.39571 8.32489 37070 ft 421 kts 191°
2026-05-08 08:09 44.33792 8.31267 37056 ft 418 kts 198°
2026-05-08 08:09 44.31137 8.29826 37035 ft 413 kts 211°
2026-05-08 08:10 44.28807 8.27532 37024 ft 410 kts 224°
2026-05-08 08:10 44.26943 8.24544 37021 ft 408 kts 235°
2026-05-08 08:10 44.25334 8.21276 37014 ft 409 kts 235°
2026-05-08 08:11 44.22102 8.14738 37007 ft 410 kts 235°
2026-05-08 08:11 44.18852 8.08208 37005 ft 410 kts 235°
2026-05-08 08:12 44.15591 8.01683 37005 ft 411 kts 235°
2026-05-08 08:12 44.12321 7.95156 37016 ft 411 kts 235°
2026-05-08 08:13 44.09027 7.88581 37016 ft 412 kts 235°
2026-05-08 08:13 44.05763 7.82080 36640 ft 414 kts 235°
2026-05-08 08:13 44.04121 7.78813 36136 ft 411 kts 234°
2026-05-08 08:14 44.02486 7.75562 35638 ft 409 kts 234°
2026-05-08 08:14 44.00857 7.72328 35151 ft 408 kts 234°
2026-05-08 08:14 43.99231 7.69098 34672 ft 406 kts 233°
2026-05-08 08:14 43.97618 7.65897 34199 ft 403 kts 233°
2026-05-08 08:15 43.96021 7.62729 33700 ft 400 kts 234°
2026-05-08 08:15 43.94431 7.59579 33232 ft 397 kts 233°
2026-05-08 08:15 43.92851 7.56451 32780 ft 394 kts 234°
2026-05-08 08:15 43.91280 7.53347 32333 ft 391 kts 234°
2026-05-08 08:16 43.89720 7.50275 31889 ft 388 kts 234°
2026-05-08 08:16 43.88173 7.47228 31461 ft 385 kts 233°
2026-05-08 08:16 43.86626 7.44220 31024 ft 382 kts 230°
2026-05-08 08:16 43.84656 7.41836 30597 ft 376 kts 208°
2026-05-08 08:17 43.82164 7.40839 30181 ft 376 kts 184°
2026-05-08 08:17 43.79586 7.41404 29708 ft 382 kts 161°
2026-05-08 08:17 43.77265 7.43260 29217 ft 388 kts 148°
2026-05-08 08:17 43.75139 7.45572 28735 ft 390 kts 143°
2026-05-08 08:18 43.73120 7.48070 28280 ft 389 kts 141°
2026-05-08 08:18 43.71133 7.50605 27819 ft 387 kts 141°
2026-05-08 08:18 43.69178 7.53153 27367 ft 387 kts 135°
2026-05-08 08:18 43.67638 7.56221 26920 ft 392 kts 120°
2026-05-08 08:19 43.66626 7.59727 26474 ft 394 kts 114°
2026-05-08 08:19 43.65703 7.63279 26045 ft 392 kts 114°
2026-05-08 08:19 43.64789 7.66809 25624 ft 390 kts 113°
2026-05-08 08:19 43.63882 7.70325 25141 ft 388 kts 113°
2026-05-08 08:20 43.62981 7.73830 24661 ft 386 kts 113°
2026-05-08 08:20 43.62087 7.77306 24189 ft 384 kts 113°